This is the latest recevied weather packets stored in our database for station/object CE3TDM-12. If no packets are shown the sender has not sent any weather packets the latest 10 day(s).
| Time | Temp. | Humidity | Pressure | Rain* | Wind** | Luminosity | Snow |
|---|---|---|---|---|---|---|---|
| 1777585941 | 16.67° C | 36% | 775.5 hPa | - | - | - | - |
| 1777585641 | 16.67° C | 35% | 775.5 hPa | - | - | - | - |
| 1777585340 | 17.22° C | 35% | 775.3 hPa | - | - | - | - |
| 1777585037 | 17.78° C | 35% | 775.4 hPa | - | - | - | - |
| 1777584736 | 17.22° C | 35% | 775.3 hPa | - | - | - | - |
| 1777584431 | 17.22° C | 35% | 775.4 hPa | - | - | - | - |
| 1777584131 | 17.22° C | 36% | 775.1 hPa | - | - | - | - |
| 1777583830 | 17.78° C | 35% | 775.2 hPa | - | - | - | - |
| 1777583528 | 17.78° C | 35% | 775.2 hPa | - | - | - | - |
| 1777583228 | 18.33° C | 35% | 774.9 hPa | - | - | - | - |
| 1777582925 | 19.44° C | 34% | 774.8 hPa | - | - | - | - |
| 1777582625 | 20° C | 33% | 774.9 hPa | - | - | - | - |
| 1777582325 | 20° C | 34% | 775.1 hPa | - | - | - | - |
| 1777582024 | 19.44° C | 34% | 775 hPa | - | - | - | - |
| 1777581724 | 18.33° C | 36% | 775 hPa | - | - | - | - |
| 1777581423 | 18.33° C | 36% | 774.9 hPa | - | - | - | - |
| 1777581123 | 18.89° C | 35% | 775.1 hPa | - | - | - | - |
| 1777580822 | 18.89° C | 35% | 774.8 hPa | - | - | - | - |
| 1777580522 | 19.44° C | 35% | 774.7 hPa | - | - | - | - |
| 1777580221 | 19.44° C | 35% | 775 hPa | - | - | - | - |
| 1777579875 | 20.56° C | 34% | 774.8 hPa | - | - | - | - |
| 1777579575 | 21.11° C | 34% | 774.9 hPa | - | - | - | - |
| 1777579274 | 22.22° C | 33% | 774.7 hPa | - | - | - | - |
| 1777578974 | 22.22° C | 33% | 774.8 hPa | - | - | - | - |
| 1777578673 | 22.22° C | 33% | 774.7 hPa | - | - | - | - |
* Rain since midnight (hover to see other rain measurements)
** Current wind speed in m/s (hover to see current wind gust speed)